Location: Caltech
(34.1382°N, 118.1253°W)
Time: 10:40:28
(UTC-07:00)

Iridium 12 - Visible Passes

Search period start: 22 August 2014 00:00
Search period end: 01 September 2014 00:00
Orbit: 776 x 779 km, 86.4° (Epoch: 21 August)

Date Brightness Start Highest point End Pass type
(mag) Time Alt. Az. Time Alt. Az. Time Alt. Az.
22 Aug 8.9 05:36:53 10° ESE 05:39:00 13° E 05:41:08 10° NE visible
25 Aug 8.5 05:35:20 10° SE 05:38:54 19° E 05:42:29 10° NE visible
28 Aug 7.9 05:34:29 10° SE 05:38:51 28° E 05:43:14 10° NNE visible
29 Aug 8.6 05:02:52 10° ESE 05:05:37 15° E 05:08:22 10° NE visible
31 Aug 7.0 05:33:59 10° SSE 05:38:50 42° E 05:43:42 10° NNE visible
